This demonstration page uses our WeatherBlox Daily Observations layout. Learn more.

Left ArrowRight Arrow

Hourly Observations for June 28, 2016

Temp ( °F °C ) Dew Point ( °F °C ) Humidity (%) Winds ( mph kmh ) Pressure ( in mb ) Visibility ( mi km ) Precip ( " mm )
12:51 am 00:51 Clear 81 27.2 57 13.9 44 44 Calm 29.86 1011 10 16 0.00 0.00
1:51 am 01:51 Clear 76 24.4 60 15.6 58 58 Calm 29.87 1011 10 16 0.00 0.00
2:51 am 02:51 Clear 78 25.6 57 13.9 48 48 ESE 9 15 29.88 1012 10 16 0.00 0.00
3:51 am 03:51 Clear 80 26.7 58 14.4 47 47 E 12 19 29.90 1012 10 16 0.00 0.00
4:51 am 04:51 Clear 78 25.6 59 15 52 52 E 10 17 29.95 1014 10 16 0.00 0.00
5:51 am 05:51 Sunny 79 26.1 59 15 50 50 E 12 19 29.95 1014 10 16 0.00 0.00
6:51 am 06:51 Sunny 82 27.8 60 15.6 47 47 E 9 15 29.96 1015 10 16 0.00 0.00
7:51 am 07:51 Sunny 85 29.4 59 15 42 42 ESE 9 15 29.98 1015 10 16 0.00 0.00
8:51 am 08:51 Sunny 88 31.1 58 14.4 36 36 SSE 10 17 29.97 1015 10 16 0.00 0.00
9:51 am 09:51 Sunny 90 32.2 57 13.9 33 33 SSE 10 17 29.95 1014 10 16 0.00 0.00
10:51 am 10:51 Sunny 93 33.9 56 13.3 29 29 ESE 14 22 29.93 1014 10 16 0.00 0.00
11:51 am 11:51 Sunny 95 35 53 11.7 24 24 SSE 14 22 29.90 1013 10 16 0.00 0.00
12:51 pm 12:51 Mostly Sunny 97 36.1 52 11.1 22 22 SSE 12 19 29.86 1011 10 16 0.00 0.00
1:51 pm 13:51 Mostly Sunny 98 36.7 52 11.1 21 21 S 7 11 29.83 1010 10 16 0.00 0.00
2:51 pm 14:51 Mostly Sunny 100 37.8 52 11.1 20 20 SSW 8 13 29.78 1009 10 16 0.00 0.00
3:51 pm 15:51 Mostly Sunny 101 38.3 52 11.1 19 19 S 13 20 29.75 1008 10 16 0.00 0.00
4:51 pm 16:51 Mostly Sunny 99 37.2 52 11.1 21 21 S 7 11 29.74 1007 10 16 0.00 0.00
5:51 pm 17:51 Sunny 98 36.7 52 11.1 21 21 S 16 26 29.75 1007 10 16 0.00 0.00
6:51 pm 18:51 Mostly Cloudy 96 35.6 52 11.1 23 23 S 13 20 29.75 1008 10 16 0.00 0.00
7:33 pm 19:33 Mostly Cloudy with Nearby Thunderstorms 95 35 52 11.1 23 23 SSE 14 22 29.68 1005 10 16 0.00 0.00
7:51 pm 19:51 Cloudy with Nearby Thunderstorms 91 32.8 59 15 34 34 ESE 29 46 29.80 1009 10 16 0.00 0.00
8:51 pm 20:51 Mostly Cloudy with Thunderstorms 87 30.6 57 13.9 36 36 E 17 28 29.86 1011 10 16 0.00 0.00
9:07 pm 21:07 Cloudy 87 30.6 57 13.9 36 36 ESE 12 19 29.83 1010 10 16 0.00 0.00
9:51 pm 21:51 Mostly Cloudy 85 29.4 60 15.6 43 43 E 12 19 29.88 1012 10 16 0.00 0.00
10:51 pm 22:51 Mostly Cloudy 84 28.9 59 15 43 43 NE 17 28 29.92 1013 10 16 0.00 0.00
11:00 pm 23:00 Mostly Cloudy with Nearby Thunderstorms 82 27.8 61 16.1 49 49 NE 14 22 29.91 1013 10 16 0.00 0.00
11:42 pm 23:42 Mostly Cloudy with Thunderstorms 81 27.2 61 16.1 51 51 NE 18 30 29.88 1012 10 16 0.00 0.00
11:51 pm 23:51 Windy with Storms Likely 75 23.9 64 17.8 69 69 NNE 25 41 29.93 1014 6 10 0.00 0.03

Powered by AerisWeather